SCP
0 0 0 0 0 0 0 0 0 0 0 0 0 0 0 0 0 0 0 0 0 0 0 0 0 0 0 0 0 0 0 0 0 0 0 0 0 0 0 0 0 1 1
0 0 0 0 0 0 0 0 0 0 0 0 0 0 0 0 0 0 0 0 0 0 0 0 0 0 0 0 0 0 0 0 0 0 0 0 0 0 0 0 0 0 0
0 0 0 0 0 0 0 0 0 0 0 0 0 0 0 0 0 0 0 0 0 0 0 0 0 0 0 0 0 0 0 0 0 0 0 0 0 0 0 0 0 0 0
0 0 0 0 0 0 0 0 0 0 0 0 0 0 0 0 0 0 0 0 0 0 0 0 0 0 0 0 0 0 0 0 0 0 0 0 0 0 0 0 0 0 0
0 0 0 0 0 0 0 0 0 0 0 0 0 0 0 0 0 0 0 0 0 0 0 0 0 0 0 0 0 0 0 0 0 0 0 0 0 0 0 0 0 0 0
0 0 0 0 0 0 0 0 0 0 0 0 0 0 0 0 0 0 0 0 0 0 0 0 0 0 0 0 0 0 0 0 0 0 0 0 0 0 0 0 0 0 0
0 0 0 0 0 0 0 0 0 0 0 0 0 0 0 0 0 0 0 0 0 0 0 0 0 0 0 0 0 0 0 0 0 0 0 0 0 0 0 0 0 0 0
0 0 0 0 0 0 0 0 0 0 0 0 0 0 0 0 0 0 0 0 0 0 0 0 0 0 0 0 0 0 0 0 0 0 0 0 0 0 0 0 0 0 0
0 0 0 0 0 0 0 0 0 0 0 0 0 0 0 0 0 0 0 0 0 0 0 0 0 0 0 0 0 0 0 0 0 0 0 0 0 0 0 0 0 0 0
0 0 0 0 0 0 0 0 0 0 0 0 0 0 0 0 0 0 0 0 0 0 0 0 0 0 0 0 0 0 0 0 0 0 0 0 0 0 0 0 0 0 0
0 0 0 0 0 0 0 0 0 0 0 0 0 0 0 0 0 0 0 0 0 0 0 0 0 0 0 0 0 0 0 0 0 0 0 0 0 0 0 0 0 0 0
0 0 0 0 0 0 0 0 0 0 0 0 0 0 0 0 0 0 0 0 0 0 0 0 0 0 0 0 0 0 0 0 0 0 0 0 0 0 0 0 0 1 1
0 0 0 0 0 0 0 0 0 0 0 0 0 0 0 0 0 0 0 0 0 0 0 0 0 0 0 0 0 0 0 0 0 0 0 0 0 0 0 0 0 0 0
0 0 0 0 0 0 0 0 0 0 0 0 0 0 0 0 0 0 0 0 0 0 0 0 0 0 0 0 0 0 0 0 0 0 0 0 0 0 0 0 0 0 0
0 0 0 0 0 0 0 0 0 0 0 0 0 0 0 0 0 0 0 0 0 0 0 0 0 0 0 0 0 0 0 0 0 0 0 0 0 0 0 0 0 0 0
0 0 0 0 0 0 0 0 0 0 0 0 0 0 0 0 0 0 0 0 0 0 0 0 0 0 0 0 0 0 0 0 0 0 0 0 0 0 0 0 0 0 0
0 0 0 0 0 0 0 0 0 0 0 0 0 0 0 0 0 0 0 0 0 0 0 0 0 0 0 0 0 0 0 0 0 0 0 0 0 0 0 0 0 0 0
0 0 0 0 0 0 0 0 0 0 0 0 0 0 0 0 0 0 0 0 0 0 0 0 0 0 0 0 0 0 0 0 0 0 0 0 0 0 0 0 0 0 0
0 0 0 0 0 0 0 0 0 0 0 0 0 0 0 0 0 0 0 0 0 0 0 0 0 0 0 0 0 0 0 0 0 0 0 0 0 0 0 0 0 0 0
0 0 0 0 0 0 0 0 0 0 0 0 0 0 0 0 0 0 0 0 0 0 0 0 0 0 0 0 0 0 0 0 0 0 0 0 0 0 0 0 0 0 0
0 0 0 0 0 0 0 0 0 0 0 0 0 0 0 0 0 0 0 0 0 0 0 0 0 0 0 0 0 0 0 0 0 0 0 0 0 0 0 0 0 0 0
0 0 0 0 0 0 0 0 0 0 0 0 0 0 0 0 0 0 0 0 0 0 0 0 0 0 0 0 0 0 0 0 0 0 0 0 0 0 0 0 0 0 0
0 0 0 0 0 0 0 0 0 0 0 0 0 0 0 0 0 0 0 0 0 0 0 0 0 0 0 0 0 0 0 0 0 0 0 0 0 0 0 0 0 0 0
0 0 0 0 0 0 0 0 0 0 0 0 0 0 0 0 0 0 0 0 0 0 0 0 0 0 0 0 0 0 0 0 0 0 0 0 0 0 0 0 0 0 0
0 0 0 0 0 0 0 0 0 0 0 0 0 0 0 0 0 0 0 0 0 0 0 0 0 0 0 0 0 0 0 0 0 0 0 0 0 0 0 0 0 0 0
0 0 0 0 0 0 0 0 0 0 0 0 0 0 0 0 0 0 0 0 0 0 0 0 0 0 0 0 0 0 0 0 0 0 0 0 0 0 0 0 0 0 0
Wind_Speed
1 1 2 2 2 2 2 3 3 3 4 4 4 4 4 4 4 3 3 4 4 4 4 3 4 3 2 2 1 2 2 2 3 3 2 2 2 3 2 1 1 2 2
1 1 1 2 2 2 3 3 3 3 4 4 4 4 4 4 4 4 4 4 4 4 5 4 4 3 3 2 1 2 2 3 3 4 3 2 3 2 2 2 2 2 2
2 2 2 2 2 2 2 3 3 3 3 4 4 4 4 4 4 4 3 4 3 3 4 4 4 4 4 3 2 2 2 2 2 3 3 2 2 2 1 2 1 1 2
2 2 1 1 1 2 2 2 3 3 3 4 4 4 4 4 4 4 4 4 4 4 4 3 4 4 4 4 3 3 2 2 2 2 3 2 2 2 1 1 1 1 1
2 1 0 1 1 1 2 2 3 3 3 3 4 4 5 4 4 5 4 4 4 4 4 4 4 6 6 4 3 2 2 2 2 2 3 2 2 2 2 2 2 1 2
2 1 0 1 1 2 2 2 3 3 3 3 4 4 5 5 10 10 6 3 3 4 5 5 5 5 7 8 8 6 3 2 3 2 3 3 4 3 2 2 2 2 2
2 1 0 0 1 1 2 2 2 3 3 4 4 4 5 7 11 11 10 4 3 4 4 4 5 6 6 4 7 7 6 7 5 4 4 5 4 3 2 3 3 4 4
2 1 1 1 0 1 1 2 2 2 2 3 4 5 5 7 12 12 11 4 3 4 4 4 5 5 5 5 4 5 5 5 5 4 5 6 5 4 4 4 4 3 3
3 2 2 1 1 1 1 2 2 2 3 3 4 4 5 7 12 12 10 3 3 5 5 4 5 5 9 9 4 4 5 6 6 7 9 9 9 8 5 2 2 3 3
4 3 2 2 2 2 2 2 2 2 3 3 4 4 5 6 11 12 11 3 3 4 4 5 7 8 10 9 4 4 5 6 6 6 6 6 5 6 7 5 5 4 3
4 3 2 2 3 3 2 2 2 2 3 3 5 5 5 7 10 12 10 3 3 4 4 4 5 11 12 11 8 5 7 7 5 4 4 4 3 3 4 4 4 5 5
3 3 3 3 2 1 1 2 2 2 2 4 4 6 5 6 7 10 12 9 7 3 4 4 6 12 12 11 8 8 10 8 3 3 4 4 4 4 4 4 4 4 5
4 3 3 3 2 2 2 2 2 2 2 3 3 5 6 5 6 11 12 11 10 5 4 8 10 12 10 7 8 10 7 3 3 4 5 5 4 4 4 3 3 3 3
5 4 3 3 3 2 2 2 2 3 3 3 4 5 5 5 5 5 5 6 7 6 5 7 10 9 6 6 7 5 3 3 4 4 5 4 4 3 4 3 3 3 3
4 4 3 3 3 3 3 3 4 5 5 5 4 4 5 6 8 11 8 5 4 5 4 3 3 3 3 4 4 4 3 3 3 3 4 4 4 4 4 3 3 3 4
4 4 3 3 3 3 3 4 6 7 10 11 10 8 7 10 13 14 13 12 12 10 5 2 3 4 4 4 4 4 4 4 4 4 4 5 4 4 5 4 3 4 4
6 5 3 3 3 3 3 3 5 6 7 9 10 11 10 11 12 13 13 12 11 8 4 3 4 5 5 5 4 4 5 5 4 4 5 5 5 4 5 4 4 4 4
5 6 5 4 4 4 4 4 4 4 5 5 7 10 11 12 12 12 12 8 5 4 3 5 5 5 5 5 5 5 5 5 4 5 5 5 5 5 5 5 5 5 5
5 4 4 4 4 4 4 4 4 5 5 5 5 7 10 10 11 11 9 4 5 5 5 5 5 5 5 6 5 5 5 5 6 5 5 5 5 5 5 6 6 7 6
4 8 6 4 4 4 4 4 4 5 5 5 6 6 5 4 5 6 5 5 5 6 6 6 6 6 6 6 6 5 6 6 6 6 6 6 5 6 6 7 6 6 5
4 5 8 5 4 4 4 5 5 5 5 6 6 8 9 5 6 7 6 6 6 6 6 6 6 6 6 5 5 6 7 6 6 6 6 6 6 6 6 6 6 5 5
4 4 4 4 5 5 5 5 5 5 6 7 7 7 12 6 5 6 6 7 7 6 6 6 6 6 6 6 6 7 7 7 6 6 6 6 6 6 6 5 5 5 5
4 4 4 5 5 7 6 5 5 6 6 7 7 6 6 6 6 7 7 7 7 6 6 6 7 7 6 7 7 7 7 8 7 7 7 7 6 6 6 6 7 7 6
5 5 5 5 5 5 5 6 6 7 7 7 7 7 7 7 7 8 8 7 7 7 6 6 7 10 12 9 7 7 7 7 7 7 9 8 7 7 7 6 7 8 7
5 5 5 5 5 5 6 6 6 7 7 7 7 7 7 7 7 8 7 7 8 8 9 8 7 8 11 12 11 9 11 13 12 8 7 7 8 8 8 8 7 8 7
5 5 5 5 5 5 6 6 7 7 7 7 7 7 8 8 8 8 7 7 7 8 8 8 9 10 12 10 11 13 14 14 13 13 9 7 8 8 8 7 8 8 8
Wind_Direction
72 59 43 17 14 23 15 355 347 346 350 351 345 347 345 344 345 348 338 336 335 328 328 320 311 304 290 278 249 230 224 211 245 274 263 282 288 294 309 295 254 239 242
104 78 52 30 32 27 4 347 349 349 348 347 347 351 347 345 342 341 336 339 333 328 325 324 317 323 310 290 269 251 240 224 233 271 281 284 276 278 281 287 276 239 227
97 80 55 35 28 9 352 347 351 351 350 351 353 347 340 336 333 330 325 324 319 317 318 316 313 318 310 301 285 272 262 255 230 248 275 276 278 278 289 286 274 273 238
104 87 62 7 342 335 344 351 349 350 352 349 343 335 332 328 324 324 323 324 319 317 316 313 305 293 290 297 292 283 276 270 255 251 267 273 266 272 247 259 278 267 261
118 104 1 317 341 354 356 350 350 353 351 342 342 337 333 327 330 330 322 327 321 321 322 319 308 308 307 304 299 288 285 278 275 265 269 275 266 255 248 242 249 259 264
146 168 203 28 16 0 347 349 355 350 344 348 346 335 334 335 335 338 334 325 319 317 315 315 312 312 317 317 310 300 283 272 269 259 267 267 264 250 248 236 231 232 255
161 170 168 109 17 338 341 359 347 337 343 343 339 337 330 323 335 341 340 329 308 302 301 308 318 323 326 312 312 313 298 287 270 257 251 254 254 246 236 246 237 229 236
167 181 199 184 291 328 347 333 319 314 323 323 325 326 324 328 341 343 342 340 313 302 297 293 296 301 307 312 310 310 300 293 278 263 248 252 253 243 228 235 240 258 259
183 199 210 199 215 278 303 298 295 302 310 310 309 316 319 320 335 341 344 327 320 311 302 300 300 292 304 316 306 295 300 299 296 288 280 276 273 262 245 225 222 227 249
203 206 208 205 210 235 257 273 277 281 290 306 313 310 309 309 325 335 338 322 317 313 309 306 310 312 313 318 296 276 287 292 299 302 299 289 273 255 246 225 216 222 239
196 192 205 217 223 229 242 257 269 288 308 314 310 308 305 305 317 327 330 318 296 300 305 306 305 313 315 314 308 275 273 287 287 286 289 288 279 258 245 232 224 220 229
180 189 211 225 238 231 231 271 278 286 303 308 310 310 305 305 309 316 322 317 311 287 287 289 296 308 310 313 310 296 296 301 288 287 283 280 275 266 256 242 236 239 241
179 201 218 226 238 232 229 254 277 278 281 292 297 300 303 305 306 314 319 317 313 300 282 293 302 310 312 314 308 305 308 297 283 280 277 276 269 263 259 257 254 248 262
190 208 216 220 239 249 249 241 245 257 267 279 286 289 296 301 300 303 307 307 305 302 297 300 308 313 311 303 306 305 293 273 277 269 273 274 279 273 260 249 248 246 262
198 210 218 223 229 242 250 244 241 242 238 251 260 262 280 292 289 295 301 297 285 274 290 297 302 307 312 307 302 294 287 286 287 278 277 276 274 275 269 253 243 247 245
200 215 219 225 232 237 253 280 265 256 272 271 268 267 269 274 291 299 303 302 299 295 298 283 283 281 279 284 287 292 289 280 276 278 278 274 270 274 276 262 246 238 238
204 215 218 221 228 235 240 250 280 293 285 280 280 284 284 291 296 300 302 302 297 296 284 268 269 269 270 274 272 272 278 275 271 273 276 276 273 271 271 262 250 245 245
211 225 224 220 225 230 236 241 245 261 286 292 289 291 293 295 296 297 302 308 298 287 257 260 264 263 264 269 269 269 272 273 268 268 270 269 269 270 273 265 251 246 248
214 222 222 222 225 231 236 242 247 252 259 273 287 293 290 293 295 293 303 283 269 268 264 260 259 259 261 263 264 266 266 268 267 266 263 262 260 262 267 268 257 242 244
224 240 238 227 228 234 236 241 249 254 261 266 270 273 283 290 291 290 287 272 261 261 261 261 261 257 258 260 260 262 265 265 264 262 261 260 256 252 258 264 260 251 244
221 243 252 245 230 233 237 242 247 250 256 261 263 265 269 270 269 271 274 272 262 260 260 259 262 261 258 257 257 258 259 261 260 260 258 258 258 256 255 257 257 253 251
219 227 232 235 238 240 244 243 245 249 255 262 269 274 276 267 263 267 268 269 263 257 256 255 259 256 251 251 253 256 259 259 260 262 262 259 259 257 255 255 253 249 244
223 232 239 243 243 250 253 248 247 249 253 257 261 266 267 262 262 266 268 270 268 264 261 254 258 259 255 252 249 248 252 256 254 255 261 261 259 258 255 253 252 251 246
225 232 239 246 247 247 249 252 252 252 254 257 260 260 261 260 261 264 266 269 268 265 262 258 257 257 258 260 258 253 251 253 257 258 257 258 258 259 257 252 253 250 244
229 235 240 245 248 250 253 255 257 258 258 260 261 262 263 262 262 265 266 266 268 266 265 264 263 259 259 260 261 261 261 259 260 262 259 256 257 256 255 252 252 249 241
234 238 241 243 245 248 251 256 258 260 260 261 261 261 262 263 264 265 266 266 267 267 267 266 264 262 262 262 261 262 262 263 263 262 259 255 254 254 252 248 248 244 232